STARLINK-11283, 60993

Orbit data source: Space-Track

STARLINK-11283, 60993 is a payload satellite in LEO that was launched on Thu, 05 Sep 2024 UTC via an FALCON 9 launch vehicle from the Air Force Eastern Test Range (AFETR). Payload-class satellites include a variety of spacecraft equipped with specific instruments for various scientific and technological missions. These include communications satellites like Starlink; space stations such as the ISS; scientific satellites like the Hubble; Earth observation satellites from companies like Planet Labs, Umbra, and HawkEye 360; GPS; miniature CubeSats for education and research; and military/defense satellites.

Loading next visibility...
Identifier
60993, 2024-158D
Orbit
LEO
Last TLE update
19 hours ago
Origin
Manufacturer
SpaceX/Seattle
Mission
Operational Commercial Communications
Bus & Motor
STARLINK V2M, Unknown motor
Mass
730 kg wet, ~700 kg dry
Launch date (UTC)
2024-09-05 (8 months ago)
Launch vehicle
FALCON 9
Launch site
Air Force Eastern Test Range (AFETR)
Object type
Payload
Rocket body
Debris
Shape & HBR
Box + 2 Pan, 29 m
Radar Cross Section
36.964 m², Large (>1 m²)

Expand to show TLE details & history

TLE from 19 hours ago
0 STARLINK-11283
1 60993U 24158D   25138.67047107  .00000529  00000-0  92123-5 0  9996
2 60993  53.1583 295.9619 0000361  65.4088 294.6968 15.69721135 41252
Epoch: 2025-05-18T16:05Z
TLE epoch observation values (Epoch: 2025-05-18T16:05:28.7Z)
Latitude
0.00002°
Longitude
177.99823°
Altitude
360.508 km
Speed
7.694 km/s
True Right ascension
19h 43m 50s
True Declination
0° 00' 00"
Sunlit
Object was in full shadow at epoch
Visualization orbit readout
Latitude
40.19673°
Longitude
-44.89466°
Altitude
363.186 km
Speed
7.697 km/s
Apparent Right ascension
06h 17m 13s
Apparent Declination
1° 35' 05"
Sunlit
Object is in daylight
Visualization observer readout
Local Sidereal Time
19:46:51
Azimuth
31.818° NE
Elevation
-43.713°
Doppler factor
1
Orbital elements
Apogee altitude
360.199 km
Perigee altitude
359.713 km
Semi-major axis
6,738.093 km
Eccentricity
0.00004
Inclination
53.1583°
RAAN
295.9619°
Arg. of periapsis
65.4088°
True anomaly
Unknown
Mean anomaly
294.6968°
Eccentric anomaly
Unknown
Mean motion
3.92408 °/min
Orbital period
91.74 mins
BSTAR
0.0000092123
Loading maneuver chart data...
Loading SW <> Apogee altitude chart data...
Loading historical data...
Loading historical data...
Loading historical data...
Loading historical data...
Loading historical data...
Loading historical data...
Loading historical data...

STARLINK-11283 Visibility forecast

Observer location: undefined°, undefined°

Span
Click to sort rows by Start time (UTC) header in descending order
Start Az.
Max El. time (UTC)
Max El. Az.
Max El.
End time (UTC)
End Az.
4 mins2025-05-19 20:06:51.101Z298.07° NW2025-05-19 20:08:51.101Z183.093° SSW39.49°2025-05-19 20:10:51.101Z143.089° SSE
|